Regional Weather Roundup
Issued by NWS Northern Indiana

Home | Current Version | Previous Version | Text Only | Print | Product List | Glossary Off
Versions: 1 2 3 4 5 6 7 8 9 10 11 12 13 14 15 16 17 18 19 20 21 22 23 24 25 26 27 28 29 30 31 32 33 34 35 36 37 38 39 40 41 42 43 44 45 46 47 48 49 50

000
ASUS43 KIWX 011910
RWRIWX

KIWX WEATHER ROUNDUP
NATIONAL WEATHER SERVICE NORTHERN INDIANA
300 PM EDT SUN MAY 01 2016

NOTE: "FAIR" INDICATES FEW OR NO CLOUDS BELOW 12,000 FEET WITH NO
SIGNIFICANT WEATHER AND/OR OBSTRUCTIONS TO VISIBILITY.

* THESE STATIONS ARE NOT UNDER NWS QUALITY CONTROL. THEY ALSO MAY NOT
  REPORT WEATHER SUCH AS PRECIPITATION OR FOG.

INZ001>027-012000-
NORTHERN INDIANA

CITY           SKY/WX    TMP DP  RH WIND       PRES   REMARKS
GARY*          CLOUDY    48  48 100 N10       30.00R FOG
VALPARAISO     CLOUDY    55  50  83 NW6       29.98R
MICHIGAN CITY* CLOUDY    52  52 100 N7        29.98S
LAPORTE*       CLOUDY    57  52  83 E3        29.97S
KNOX*          CLOUDY    54  46  76 E3        29.97S
SOUTH BEND     CLOUDY    55  49  80 N7        29.98S
ELKHART*       CLOUDY    54  54 100 MISG      29.98R
GOSHEN         CLOUDY    56  51  84 N7        29.97S
MONTICELLO*    CLOUDY    58  53  84 CALM      29.96R
LOGANSPORT*    CLOUDY    59  55  88 NW3       29.96S
ROCHESTER*     CLOUDY    59  55  88 CALM      29.96S
WARSAW*        CLOUDY    55  52  88 NE3       29.96S
ANGOLA*        CLOUDY    54  43  66 NE5       29.96F
FORT WAYNE     CLOUDY    61  56  83 N5        29.96S
HUNTINGTON*    CLOUDY   N/A N/A N/A CALM      29.95S FOG
PERU/GRISSOM   PTSUNNY   64  61  91 NW7       29.93S
MARION*        PTSUNNY   68  59  71 W6        29.94S

$$
INZ028>050-012000-
CENTRAL INDIANA

CITY           SKY/WX    TMP DP  RH WIND       PRES   REMARKS
LAFAYETTE      CLOUDY    62  57  83 NE6       29.94F
KOKOMO*        MOSUNNY   66  57  72 CALM      29.93S
MUNCIE*        MOSUNNY   73  54  51 S7        29.93S
INDIANAPOLIS   MOSUNNY   75  56  51 W6        29.92S

$$
MIZ043>046-050>051-056>058-064>065-071>073-077>080-012000-
SOUTHWEST LOWER MICHIGAN

CITY           SKY/WX    TMP DP  RH WIND       PRES   REMARKS
BATTLE CREEK   CLOUDY    50  46  86 NE9       30.00R
BENTON HARBOR  CLOUDY    54  47  77 E6        29.98S
COLDWATER*     CLOUDY    53  50  91 NE5       29.98S
HILLSDALE*     CLOUDY    52  51  97 CALM      29.97S
HOLLAND        CLOUDY    52  47  83 E12       30.01S
GRAND RAPIDS   CLOUDY    51  46  83 E14       30.01R
KALAMAZOO      CLOUDY    51  46  83 NE7       30.00S
STURGIS*       CLOUDY    53  49  87 NE6       29.97S
THREE RIVERS*  CLOUDY    53  50  90 NE5       29.98S

$$
OHZ001>008-015>018-024>025-012000-
NORTHWEST OHIO

CITY           SKY/WX    TMP DP  RH WIND       PRES   REMARKS
WAUSEON*         N/A     54 N/A N/A NE9       29.97S HAZE
DEFIANCE       CLOUDY    58  51  78 NE6       29.97R
FINDLAY        CLOUDY    64  56  75 NW8       29.93S
TOLEDO EXPRESS CLOUDY    54  51  90 NE6       29.97R
TOLEDO METCALF CLOUDY    55  49  80 NE6       29.98R
LIMA           MOSUNNY   69  63  81 N8        29.93S

$$
AND FOR LAKE MICHIGAN COASTAL AND OPEN LAKE BUOY OBSERVATIONS

STATION/POSITION TEMP    WIND        PRES    VSBY  WAVE
                 AIR SEA DIR/SP/G                  HT/PER
                 (F)     (DEG/KT/KT) (MB)    (MI)  (FT/S)
CALUMET HARBOR    45      10/ 12/ 14 1015.1F
MICHIGAN CITY     45     360/ 11/ 12   N/A
BURNS HARBOR      46      20/ 10/ 12 1015.9S
SAINT JOSEPH      49     350/  7/  9 1015.9S
SOUTH LAKE BUOY   42 40   20/ 10/ 10 1016.0F         2/ 4
4 MI NW BRIDGMAN  47 48                N/A           2/ 5

$$
&&



USA.gov is the U.S. government's official web portal to all federal, state and local government web resources and services.